ANZ588 NZCH-NZAA

Flight info

Callsign ANZ588
Flight time 1h 3m
Altitude 37000
Route GUTB2P/02 GLENN Y175 OMKUN Y655 POKOM Q277 DAVEE
Aircraft A320/M-SDE1E2E3GIRW/LB1

Departure

Time 2026-05-04 09:14
Airport Christchurch International Airport (NZCH)

Arrival

Time 2026-05-04 10:17
Airport Auckland International Airport (NZAA)
Time Latitude Longitude Altitude Speed Heading
2026-05-04 08:41 -43.48867 172.53785 109 ft 0 kts 130°
2026-05-04 09:05 -43.48866 172.53782 109 ft 2 kts 130°
2026-05-04 09:05 -43.48849 172.53755 108 ft 4 kts 130°
2026-05-04 09:06 -43.48831 172.53726 109 ft 4 kts 130°
2026-05-04 09:07 -43.48788 172.53655 108 ft 0 kts 130°
2026-05-04 09:09 -43.48789 172.53657 109 ft 2 kts 131°
2026-05-04 09:09 -43.48808 172.53648 109 ft 5 kts 221°
2026-05-04 09:10 -43.48848 172.53599 109 ft 10 kts 220°
2026-05-04 09:10 -43.48910 172.53535 109 ft 13 kts 212°
2026-05-04 09:10 -43.48976 172.53464 113 ft 12 kts 220°
2026-05-04 09:10 -43.49050 172.53379 111 ft 16 kts 219°
2026-05-04 09:11 -43.49139 172.53277 115 ft 17 kts 220°
2026-05-04 09:11 -43.49235 172.53167 112 ft 19 kts 220°
2026-05-04 09:11 -43.49331 172.53056 120 ft 17 kts 220°
2026-05-04 09:11 -43.49420 172.52952 122 ft 15 kts 220°
2026-05-04 09:12 -43.49483 172.52880 126 ft 9 kts 220°
2026-05-04 09:12 -43.49514 172.52812 124 ft 8 kts 267°
2026-05-04 09:14 -43.47975 172.54284 286 ft 159 kts 41°
2026-05-04 09:14 -43.47132 172.55246 1032 ft 157 kts 33°
2026-05-04 09:14 -43.46139 172.55907 1719 ft 159 kts 24°
2026-05-04 09:14 -43.45081 172.56558 2119 ft 177 kts 24°
2026-05-04 09:15 -43.43872 172.57304 2399 ft 200 kts 24°
2026-05-04 09:15 -43.42518 172.58150 2728 ft 225 kts 24°
2026-05-04 09:15 -43.41033 172.59086 3168 ft 249 kts 24°
2026-05-04 09:15 -43.39362 172.60147 3636 ft 274 kts 24°
2026-05-04 09:17 -43.22614 172.68746 9247 ft 343 kts 15°
2026-05-04 09:18 -43.20320 172.69736 10016 ft 347 kts 16°
2026-05-04 09:18 -43.17999 172.70753 10743 ft 351 kts 16°
2026-05-04 09:18 -43.15661 172.71789 11440 ft 355 kts 16°
2026-05-04 09:18 -43.13319 172.72830 12150 ft 358 kts 16°
2026-05-04 09:19 -43.10939 172.73893 12841 ft 362 kts 17°
2026-05-04 09:19 -43.08536 172.74965 13540 ft 365 kts 17°
2026-05-04 09:19 -43.06109 172.76042 14245 ft 368 kts 16°
2026-05-04 09:19 -43.03660 172.77124 14860 ft 371 kts 17°
2026-05-04 09:20 -43.01185 172.78212 15480 ft 374 kts 17°
2026-05-04 09:20 -42.98731 172.79291 16084 ft 377 kts 17°
2026-05-04 09:20 -42.96223 172.80393 16687 ft 379 kts 17°
2026-05-04 09:20 -42.93701 172.81503 17301 ft 382 kts 17°
2026-05-04 09:21 -42.91164 172.82620 17929 ft 385 kts 17°
2026-05-04 09:21 -42.88570 172.83764 18576 ft 388 kts 17°
2026-05-04 09:21 -42.86005 172.84955 19153 ft 391 kts 19°
2026-05-04 09:21 -42.83440 172.86252 19715 ft 395 kts 20°
2026-05-04 09:22 -42.80870 172.87615 20281 ft 398 kts 20°
2026-05-04 09:22 -42.78278 172.89010 20855 ft 401 kts 21°
2026-05-04 09:22 -42.75668 172.90405 21404 ft 405 kts 20°
2026-05-04 09:22 -42.73030 172.91790 21930 ft 408 kts 20°
2026-05-04 09:23 -42.70369 172.93171 22432 ft 411 kts 20°
2026-05-04 09:23 -42.67689 172.94557 22928 ft 414 kts 20°
2026-05-04 09:23 -42.64982 172.95951 23415 ft 417 kts 20°
2026-05-04 09:23 -42.62257 172.97348 23894 ft 420 kts 21°
2026-05-04 09:25 -42.42689 173.07366 26537 ft 438 kts 21°
2026-05-04 09:25 -42.39827 173.08828 26893 ft 440 kts 21°
2026-05-04 09:26 -42.36947 173.10299 27254 ft 443 kts 21°
2026-05-04 09:26 -42.34054 173.11773 27603 ft 446 kts 21°
2026-05-04 09:26 -42.31149 173.13253 27954 ft 448 kts 21°
2026-05-04 09:26 -42.28216 173.14749 28300 ft 451 kts 21°
2026-05-04 09:27 -42.25272 173.16247 28637 ft 453 kts 21°
2026-05-04 09:27 -42.22305 173.17751 28977 ft 456 kts 21°
2026-05-04 09:27 -42.19293 173.19279 29308 ft 458 kts 21°
2026-05-04 09:27 -42.16303 173.20793 29781 ft 457 kts 21°
2026-05-04 09:28 -42.13328 173.22299 30289 ft 456 kts 21°
2026-05-04 09:28 -42.10357 173.23800 30741 ft 455 kts 21°
2026-05-04 09:28 -42.07399 173.25290 31155 ft 454 kts 21°
2026-05-04 09:28 -42.04435 173.26780 31574 ft 454 kts 21°
2026-05-04 09:29 -42.01477 173.28268 31986 ft 453 kts 20°
2026-05-04 09:29 -41.98524 173.29753 32397 ft 453 kts 21°
2026-05-04 09:29 -41.95566 173.31244 32816 ft 452 kts 21°
2026-05-04 09:29 -41.92625 173.32725 33237 ft 451 kts 21°
2026-05-04 09:30 -41.89687 173.34198 33656 ft 451 kts 20°
2026-05-04 09:30 -41.86745 173.35672 34078 ft 450 kts 20°
2026-05-04 09:30 -41.83808 173.37147 34506 ft 449 kts 20°
2026-05-04 09:30 -41.80880 173.38617 34881 ft 449 kts 20°
2026-05-04 09:31 -41.77957 173.40080 35240 ft 448 kts 20°
2026-05-04 09:31 -41.75039 173.41538 35569 ft 447 kts 20°
2026-05-04 09:31 -41.72119 173.42991 35864 ft 448 kts 20°
2026-05-04 09:31 -41.69189 173.44447 36130 ft 449 kts 20°
2026-05-04 09:32 -41.66264 173.45903 36424 ft 449 kts 20°
2026-05-04 09:32 -41.63335 173.47363 36726 ft 449 kts 20°
2026-05-04 09:34 -41.42692 173.57581 37534 ft 454 kts 20°
2026-05-04 09:34 -41.39719 173.59050 37537 ft 454 kts 20°
2026-05-04 09:34 -41.33786 173.61970 37535 ft 454 kts 20°
2026-05-04 09:35 -41.27902 173.64864 37537 ft 454 kts 20°
2026-05-04 09:35 -41.21970 173.67772 37537 ft 454 kts 20°
2026-05-04 09:37 -40.98233 173.79339 37547 ft 454 kts 20°
2026-05-04 09:38 -40.92297 173.82225 37550 ft 454 kts 20°
2026-05-04 09:38 -40.86366 173.85117 37548 ft 455 kts 20°
2026-05-04 09:39 -40.80418 173.87997 37543 ft 455 kts 20°
2026-05-04 09:39 -40.74461 173.90862 37544 ft 456 kts 20°
2026-05-04 09:40 -40.68532 173.93715 37544 ft 456 kts 20°
2026-05-04 09:40 -40.62567 173.96588 37548 ft 457 kts 20°
2026-05-04 09:42 -40.39652 174.07559 37572 ft 456 kts 19°
2026-05-04 09:43 -40.33684 174.10407 37575 ft 456 kts 19°
2026-05-04 09:43 -40.27714 174.13247 37578 ft 456 kts 19°
2026-05-04 09:44 -40.21757 174.16082 37582 ft 456 kts 19°
2026-05-04 09:46 -39.97945 174.27330 37584 ft 454 kts 19°
2026-05-04 09:46 -39.91995 174.30131 37588 ft 454 kts 19°
2026-05-04 09:47 -39.86058 174.32918 37587 ft 454 kts 19°
2026-05-04 09:49 -39.64383 174.37485 37593 ft 452 kts
2026-05-04 09:49 -39.61259 174.37938 37593 ft 452 kts
2026-05-04 09:51 -39.39379 174.41123 37601 ft 452 kts
2026-05-04 09:51 -39.33164 174.42026 37604 ft 452 kts
2026-05-04 09:52 -39.26911 174.42928 37609 ft 452 kts
2026-05-04 09:52 -39.20654 174.43831 37610 ft 452 kts
2026-05-04 09:53 -39.14358 174.44742 37608 ft 452 kts
2026-05-04 09:53 -39.08110 174.45640 37610 ft 452 kts
2026-05-04 09:54 -39.01862 174.46533 37611 ft 452 kts
2026-05-04 09:54 -38.95646 174.47429 37607 ft 452 kts
2026-05-04 09:55 -38.89392 174.48327 37607 ft 452 kts
2026-05-04 09:55 -38.83144 174.49215 37395 ft 451 kts
2026-05-04 09:55 -38.80022 174.49656 37137 ft 451 kts
2026-05-04 09:56 -38.76906 174.50095 36881 ft 450 kts
2026-05-04 09:56 -38.73783 174.50537 36628 ft 451 kts
2026-05-04 09:56 -38.70667 174.50981 36110 ft 452 kts
2026-05-04 09:56 -38.67523 174.51431 35296 ft 456 kts
2026-05-04 09:57 -38.64359 174.51882 34411 ft 460 kts
2026-05-04 09:57 -38.61168 174.52338 33446 ft 463 kts
2026-05-04 09:57 -38.57961 174.52796 32480 ft 464 kts
2026-05-04 09:57 -38.54743 174.53252 31562 ft 465 kts
2026-05-04 09:58 -38.51526 174.53708 30506 ft 467 kts
2026-05-04 09:58 -38.48304 174.54161 29564 ft 458 kts
2026-05-04 09:58 -38.45178 174.54600 29097 ft 448 kts
2026-05-04 10:00 -38.24210 174.57549 24683 ft 419 kts
2026-05-04 10:00 -38.21317 174.57955 24067 ft 416 kts
2026-05-04 10:02 -38.01931 174.60668 20234 ft 390 kts
2026-05-04 10:04 -37.83518 174.63233 16485 ft 369 kts
2026-05-04 10:04 -37.80972 174.63586 15929 ft 366 kts
2026-05-04 10:04 -37.78450 174.63936 15383 ft 363 kts
2026-05-04 10:04 -37.75923 174.64288 14524 ft 369 kts
2026-05-04 10:05 -37.73349 174.64644 13645 ft 374 kts
2026-05-04 10:05 -37.70775 174.64999 13068 ft 369 kts
2026-05-04 10:05 -37.68246 174.65347 12503 ft 364 kts
2026-05-04 10:05 -37.65743 174.65693 11936 ft 359 kts
2026-05-04 10:06 -37.63269 174.66034 11370 ft 356 kts
2026-05-04 10:06 -37.60822 174.66371 10817 ft 352 kts
2026-05-04 10:06 -37.58425 174.66698 10595 ft 339 kts
2026-05-04 10:08 -37.45782 174.68449 9486 ft 284 kts
2026-05-04 10:08 -37.43838 174.68717 9106 ft 284 kts
2026-05-04 10:08 -37.41855 174.68987 8666 ft 284 kts
2026-05-04 10:08 -37.39910 174.69253 8249 ft 279 kts
2026-05-04 10:09 -37.37978 174.69519 7753 ft 277 kts
2026-05-04 10:09 -37.36072 174.69778 7280 ft 274 kts
2026-05-04 10:09 -37.34192 174.70032 6838 ft 270 kts
2026-05-04 10:09 -37.32357 174.70280 6398 ft 268 kts
2026-05-04 10:10 -37.30489 174.70537 5970 ft 271 kts
2026-05-04 10:10 -37.28627 174.70796 5597 ft 267 kts
2026-05-04 10:10 -37.26799 174.71051 5118 ft 262 kts
2026-05-04 10:10 -37.25009 174.71296 4756 ft 253 kts
2026-05-04 10:11 -37.23320 174.71522 4597 ft 236 kts
2026-05-04 10:11 -37.21726 174.71738 4439 ft 227 kts
2026-05-04 10:11 -37.20146 174.71806 4318 ft 227 kts 356°
2026-05-04 10:11 -37.18601 174.71430 4182 ft 228 kts 349°
2026-05-04 10:12 -37.17063 174.71001 3940 ft 226 kts 349°
2026-05-04 10:12 -37.15531 174.70577 3646 ft 225 kts 349°
2026-05-04 10:12 -37.14016 174.70157 3341 ft 220 kts 350°
2026-05-04 10:12 -37.12551 174.69751 3056 ft 211 kts 350°
2026-05-04 10:13 -37.11154 174.69362 2786 ft 201 kts 350°
2026-05-04 10:13 -37.09827 174.68992 2532 ft 189 kts 350°
2026-05-04 10:13 -37.08563 174.68644 2247 ft 185 kts 351°
2026-05-04 10:13 -37.07322 174.68304 1985 ft 178 kts 351°
2026-05-04 10:14 -37.06145 174.68236 1758 ft 162 kts 10°
2026-05-04 10:14 -37.05122 174.68600 1562 ft 146 kts 27°
2026-05-04 10:16 -37.02070 174.75506 312 ft 133 kts 73°
2026-05-04 10:16 -37.01871 174.76232 205 ft 133 kts 72°
2026-05-04 10:16 -37.01560 174.77339 43 ft 133 kts 72°
2026-05-04 10:16 -37.01291 174.78318 26 ft 98 kts 71°
2026-05-04 10:17 -37.01122 174.78928 29 ft 55 kts 71°
2026-05-04 10:17 -37.01018 174.79303 25 ft 37 kts 71°
2026-05-04 10:19 -37.00692 174.79462 25 ft 13 kts 251°
2026-05-04 10:19 -37.00721 174.79356 27 ft 12 kts 251°
2026-05-04 10:19 -37.00746 174.79265 25 ft 9 kts 251°
2026-05-04 10:19 -37.00751 174.79228 27 ft 3 kts 294°
2026-05-04 10:20 -37.00724 174.79210 29 ft 6 kts 341°
2026-05-04 10:20 -37.00690 174.79193 29 ft 4 kts 327°
2026-05-04 10:20 -37.00682 174.79183 27 ft 1 kts 314°
2026-05-04 10:20 -37.00681 174.79182 27 ft 0 kts 314°